Time,TemperatureF,DewpointF,PressureIn,WindDirection,WindDirectionDegrees,WindSpeedMPH,WindSpeedGustMPH,Humidity,HourlyPrecipIn,Conditions,Clouds,dailyrainin,SoftwareType,DateUTC
2013-04-09 00:03:00,53.0,-99.9,-100.00,NE,35,4.0,6.0,-999,0.00,,,0.49,,2013-04-09 05:03:00,
2013-04-09 00:13:00,53.0,-99.9,-100.00,NE,35,4.0,6.0,-999,0.00,,,0.49,,2013-04-09 05:13:00,
2013-04-09 00:22:00,53.0,-99.9,-100.00,NE,35,4.0,6.0,-999,0.00,,,0.49,,2013-04-09 05:22:00,
2013-04-09 00:33:00,53.0,-99.9,-100.00,NE,53,5.0,6.0,-999,0.00,,,0.49,,2013-04-09 05:33:00,
2013-04-09 00:43:00,53.0,-99.9,-100.00,NE,53,5.0,6.0,-999,0.00,,,0.49,,2013-04-09 05:43:00,
2013-04-09 00:52:00,53.0,-99.9,-100.00,NE,53,5.0,6.0,-999,0.00,,,0.49,,2013-04-09 05:52:00,
2013-04-09 01:02:00,56.0,-99.9,-100.00,ENE,61,9.0,12.0,-999,0.00,,,0.49,,2013-04-09 06:02:00,
2013-04-09 01:12:00,56.0,-99.9,-100.00,ENE,61,9.0,12.0,-999,0.00,,,0.49,,2013-04-09 06:12:00,
2013-04-09 01:22:00,56.0,-99.9,-100.00,ENE,61,9.0,12.0,-999,0.00,,,0.49,,2013-04-09 06:22:00,
2013-04-09 01:30:00,63.0,-99.9,-100.00,East,89,9.0,13.0,-999,0.00,,,0.49,,2013-04-09 06:30:00,
2013-04-09 01:32:00,60.0,-99.9,-100.00,ENE,67,5.0,8.0,-999,0.00,,,0.49,,2013-04-09 06:32:00,
2013-04-09 01:42:00,60.0,-99.9,-100.00,ENE,67,5.0,8.0,-999,0.00,,,0.49,,2013-04-09 06:42:00,
2013-04-09 01:52:00,60.0,-99.9,-100.00,ENE,67,5.0,8.0,-999,0.00,,,0.49,,2013-04-09 06:52:00,
2013-04-09 02:02:00,63.0,-99.9,-100.00,East,89,9.0,13.0,-999,0.00,,,0.49,,2013-04-09 07:02:00,
2013-04-09 02:13:00,63.0,-99.9,-100.00,East,89,9.0,13.0,-999,0.00,,,0.49,,2013-04-09 07:13:00,
2013-04-09 02:22:00,63.0,-99.9,-100.00,East,89,9.0,13.0,-999,0.00,,,0.49,,2013-04-09 07:22:00,
2013-04-09 02:42:00,62.0,-99.9,-100.00,ENE,69,6.0,8.0,-999,0.00,,,0.43,,2013-04-09 07:42:00,
2013-04-09 02:53:00,62.0,-99.9,-100.00,ENE,69,6.0,8.0,-999,0.00,,,0.43,,2013-04-09 07:53:00,
2013-04-09 03:03:00,59.0,-99.9,-100.00,ENE,65,9.0,13.0,-999,0.00,,,0.39,,2013-04-09 08:03:00,
2013-04-09 03:13:00,59.0,-99.9,-100.00,ENE,65,9.0,13.0,-999,0.00,,,0.39,,2013-04-09 08:13:00,
2013-04-09 03:22:00,59.0,-99.9,-100.00,ENE,65,9.0,13.0,-999,0.00,,,0.39,,2013-04-09 08:22:00,
2013-04-09 03:32:00,59.0,-99.9,-100.00,East,81,8.0,11.0,-999,0.02,,,0.34,,2013-04-09 08:32:00,
2013-04-09 03:42:00,59.0,-99.9,-100.00,East,81,8.0,11.0,-999,0.02,,,0.34,,2013-04-09 08:42:00,
2013-04-09 03:52:00,59.0,-99.9,-100.00,East,81,8.0,11.0,-999,0.02,,,0.34,,2013-04-09 08:52:00,
2013-04-09 04:03:00,59.0,-99.9,-100.00,East,87,5.0,9.0,-999,0.02,,,0.24,,2013-04-09 09:03:00,
2013-04-09 04:13:00,59.0,-99.9,-100.00,East,87,5.0,9.0,-999,0.02,,,0.24,,2013-04-09 09:13:00,
2013-04-09 04:23:00,59.0,-99.9,-100.00,East,87,5.0,9.0,-999,0.02,,,0.24,,2013-04-09 09:23:00,
2013-04-09 04:33:00,57.0,-99.9,-100.00,ENE,62,12.0,17.0,-999,0.00,,,0.18,,2013-04-09 09:33:00,
2013-04-09 04:44:00,57.0,-99.9,-100.00,ENE,62,12.0,17.0,-999,0.00,,,0.18,,2013-04-09 09:44:00,
2013-04-09 04:53:00,57.0,-99.9,-100.00,ENE,62,12.0,17.0,-999,0.00,,,0.18,,2013-04-09 09:53:00,
2013-04-09 05:04:00,56.0,-99.9,-100.00,ENE,64,9.0,11.0,-999,0.01,,,0.18,,2013-04-09 10:04:00,
2013-04-09 05:13:00,56.0,-99.9,-100.00,ENE,64,9.0,11.0,-999,0.01,,,0.18,,2013-04-09 10:13:00,
2013-04-09 05:24:00,56.0,-99.9,-100.00,ENE,64,9.0,11.0,-999,0.01,,,0.18,,2013-04-09 10:24:00,
2013-04-09 05:33:00,55.0,-99.9,-100.00,ENE,62,10.0,12.0,-999,0.01,,,0.15,,2013-04-09 10:33:00,
2013-04-09 05:43:00,55.0,-99.9,-100.00,ENE,62,10.0,12.0,-999,0.01,,,0.15,,2013-04-09 10:43:00,
2013-04-09 05:54:00,55.0,-99.9,-100.00,ENE,62,10.0,12.0,-999,0.01,,,0.15,,2013-04-09 10:54:00,
2013-04-09 06:03:00,54.0,-99.9,-100.00,ENE,61,9.0,11.0,-999,0.00,,,0.10,,2013-04-09 11:03:00,
2013-04-09 06:12:00,54.0,-99.9,-100.00,ENE,61,9.0,11.0,-999,0.00,,,0.10,,2013-04-09 11:12:00,
2013-04-09 06:22:00,54.0,-99.9,-100.00,ENE,61,9.0,11.0,-999,0.00,,,0.10,,2013-04-09 11:22:00,
2013-04-09 06:33:00,54.0,-99.9,-100.00,NE,54,10.0,14.0,-999,0.00,,,0.09,,2013-04-09 11:33:00,
2013-04-09 06:43:00,54.0,-99.9,-100.00,NE,54,10.0,14.0,-999,0.00,,,0.09,,2013-04-09 11:43:00,
2013-04-09 06:52:00,54.0,-99.9,-100.00,NE,54,10.0,14.0,-999,0.00,,,0.09,,2013-04-09 11:52:00,
2013-04-09 07:02:00,53.0,-99.9,-100.00,ENE,69,8.0,13.0,-999,0.00,,,0.05,,2013-04-09 12:02:00,
2013-04-09 07:12:00,53.0,-99.9,-100.00,ENE,69,8.0,13.0,-999,0.00,,,0.05,,2013-04-09 12:12:00,
2013-04-09 07:22:00,53.0,-99.9,-100.00,ENE,69,8.0,13.0,-999,0.00,,,0.05,,2013-04-09 12:22:00,
2013-04-09 07:33:00,53.0,-99.9,-100.00,NE,52,7.0,9.0,-999,0.00,,,0.03,,2013-04-09 12:33:00,
2013-04-09 07:43:00,53.0,-99.9,-100.00,NE,52,7.0,9.0,-999,0.00,,,0.03,,2013-04-09 12:43:00,
2013-04-09 07:53:00,53.0,-99.9,-100.00,NE,52,7.0,9.0,-999,0.00,,,0.03,,2013-04-09 12:53:00,
2013-04-09 08:03:00,52.0,-99.9,-100.00,NNE,22,8.0,10.0,-999,0.00,,,0.03,,2013-04-09 13:03:00,
2013-04-09 08:13:00,52.0,-99.9,-100.00,NNE,22,8.0,10.0,-999,0.00,,,0.03,,2013-04-09 13:13:00,
2013-04-09 08:23:00,52.0,-99.9,-100.00,NNE,22,8.0,10.0,-999,0.00,,,0.03,,2013-04-09 13:23:00,
2013-04-09 08:33:00,52.0,-99.9,-100.00,NE,52,10.0,12.0,-999,0.00,,,0.03,,2013-04-09 13:33:00,
2013-04-09 08:43:00,52.0,-99.9,-100.00,NE,52,10.0,12.0,-999,0.00,,,0.03,,2013-04-09 13:43:00,
2013-04-09 08:54:00,52.0,-99.9,-100.00,NE,52,10.0,12.0,-999,0.00,,,0.03,,2013-04-09 13:54:00,
2013-04-09 09:04:00,53.0,-99.9,-100.00,ENE,63,8.0,10.0,-999,0.00,,,-99.99,,2013-04-09 14:04:00,
2013-04-09 09:12:00,53.0,-99.9,-100.00,ENE,63,8.0,10.0,-999,0.00,,,-99.99,,2013-04-09 14:12:00,
2013-04-09 09:22:00,53.0,-99.9,-100.00,ENE,63,8.0,10.0,-999,0.00,,,-99.99,,2013-04-09 14:22:00,
2013-04-09 09:33:00,53.0,-99.9,-100.00,ENE,67,8.0,11.0,-999,0.00,,,0.03,,2013-04-09 14:33:00,
2013-04-09 09:43:00,53.0,-99.9,-100.00,ENE,67,8.0,11.0,-999,0.00,,,0.03,,2013-04-09 14:43:00,
2013-04-09 09:53:00,53.0,-99.9,-100.00,ENE,67,8.0,11.0,-999,0.00,,,0.03,,2013-04-09 14:53:00,
2013-04-09 10:03:00,53.0,-99.9,-100.00,ENE,70,7.0,9.0,-999,0.00,,,0.03,,2013-04-09 15:03:00,
2013-04-09 10:13:00,53.0,-99.9,-100.00,ENE,70,7.0,9.0,-999,0.00,,,0.03,,2013-04-09 15:13:00,
2013-04-09 10:23:00,53.0,-99.9,-100.00,ENE,70,7.0,9.0,-999,0.00,,,0.03,,2013-04-09 15:23:00,
2013-04-09 10:35:00,55.0,-99.9,-100.00,ENE,64,9.0,10.0,-999,0.00,,,0.03,,2013-04-09 15:35:00,
2013-04-09 10:44:00,55.0,-99.9,-100.00,ENE,64,9.0,10.0,-999,0.00,,,0.03,,2013-04-09 15:44:00,
2013-04-09 10:54:00,55.0,-99.9,-100.00,ENE,64,9.0,10.0,-999,0.00,,,0.03,,2013-04-09 15:54:00,
2013-04-09 11:05:00,57.0,-99.9,-100.00,ENE,74,6.0,8.0,-999,0.00,,,0.03,,2013-04-09 16:05:00,
2013-04-09 11:14:00,57.0,-99.9,-100.00,ENE,74,6.0,8.0,-999,0.00,,,0.03,,2013-04-09 16:14:00,
2013-04-09 11:24:00,57.0,-99.9,-100.00,ENE,74,6.0,8.0,-999,0.00,,,0.03,,2013-04-09 16:24:00,
2013-04-09 11:34:00,60.0,-99.9,-100.00,East,80,5.0,8.0,-999,0.00,,,0.03,,2013-04-09 16:34:00,
2013-04-09 11:43:00,60.0,-99.9,-100.00,East,80,5.0,8.0,-999,0.00,,,0.03,,2013-04-09 16:43:00,
2013-04-09 11:54:00,60.0,-99.9,-100.00,East,80,5.0,8.0,-999,0.00,,,0.03,,2013-04-09 16:54:00,
2013-04-09 12:03:00,58.0,-99.9,-100.00,NE,39,4.0,6.0,-999,0.00,,,0.03,,2013-04-09 17:03:00,
2013-04-09 12:13:00,58.0,-99.9,-100.00,NE,39,4.0,6.0,-999,0.00,,,0.03,,2013-04-09 17:13:00,
2013-04-09 12:24:00,58.0,-99.9,-100.00,NE,39,4.0,6.0,-999,0.00,,,0.03,,2013-04-09 17:24:00,
2013-04-09 12:33:00,68.0,-99.9,-100.00,South,181,6.0,8.0,-999,0.00,,,0.03,,2013-04-09 17:33:00,
2013-04-09 12:43:00,68.0,-99.9,-100.00,South,181,6.0,8.0,-999,0.00,,,0.03,,2013-04-09 17:43:00,
2013-04-09 12:55:00,68.0,-99.9,-100.00,South,181,6.0,8.0,-999,0.00,,,0.03,,2013-04-09 17:55:00,
2013-04-09 13:00:00,74.0,-99.9,-100.00,South,169,10.0,12.0,-999,0.00,,,0.03,,2013-04-09 18:00:00,
2013-04-09 13:03:00,72.0,-99.9,-100.00,South,187,8.0,11.0,-999,0.00,,,-99.99,,2013-04-09 18:03:00,
2013-04-09 13:13:00,72.0,-99.9,-100.00,South,187,8.0,11.0,-999,0.00,,,-99.99,,2013-04-09 18:13:00,
2013-04-09 13:23:00,72.0,-99.9,-100.00,South,187,8.0,11.0,-999,0.00,,,-99.99,,2013-04-09 18:23:00,
2013-04-09 13:33:00,74.0,-99.9,-100.00,South,169,10.0,12.0,-999,0.00,,,0.03,,2013-04-09 18:33:00,
2013-04-09 13:44:00,74.0,-99.9,-100.00,South,169,10.0,12.0,-999,0.00,,,0.03,,2013-04-09 18:44:00,
2013-04-09 13:53:00,74.0,-99.9,-100.00,South,169,10.0,12.0,-999,0.00,,,0.03,,2013-04-09 18:53:00,
2013-04-09 14:53:00,73.0,-99.9,-100.00,South,177,9.0,11.0,-999,0.00,,,0.03,,2013-04-09 19:53:00,
2013-04-09 15:03:00,74.0,-99.9,-100.00,South,176,8.0,10.0,-999,0.00,,,-99.99,,2013-04-09 20:03:00,
2013-04-09 15:13:00,74.0,-99.9,-100.00,South,176,8.0,10.0,-999,0.00,,,-99.99,,2013-04-09 20:13:00,
2013-04-09 15:23:00,74.0,-99.9,-100.00,South,176,8.0,10.0,-999,0.00,,,-99.99,,2013-04-09 20:23:00,
2013-04-09 15:30:00,75.0,-99.9,-100.00,South,184,7.0,9.0,-999,0.00,,,-99.99,,2013-04-09 20:30:00,
2013-04-09 15:35:00,75.0,-99.9,-100.00,South,191,6.0,10.0,-999,0.00,,,0.03,,2013-04-09 20:35:00,
2013-04-09 15:44:00,75.0,-99.9,-100.00,South,191,6.0,10.0,-999,0.00,,,0.03,,2013-04-09 20:44:00,
2013-04-09 15:53:00,75.0,-99.9,-100.00,South,191,6.0,10.0,-999,0.00,,,0.03,,2013-04-09 20:53:00,
2013-04-09 16:03:00,75.0,-99.9,-100.00,South,184,7.0,9.0,-999,0.00,,,-99.99,,2013-04-09 21:03:00,
2013-04-09 16:14:00,75.0,-99.9,-100.00,South,184,7.0,9.0,-999,0.00,,,-99.99,,2013-04-09 21:14:00,
2013-04-09 16:53:00,76.0,-99.9,-100.00,South,178,6.0,7.0,-999,0.00,,,0.03,,2013-04-09 21:53:00,
2013-04-09 17:04:00,64.0,-99.9,-100.00,North,359,11.0,14.0,-999,0.00,,,0.03,,2013-04-09 22:04:00,
2013-04-09 17:13:00,64.0,-99.9,-100.00,North,359,11.0,14.0,-999,0.00,,,0.03,,2013-04-09 22:13:00,
2013-04-09 17:23:00,64.0,-99.9,-100.00,North,359,11.0,14.0,-999,0.00,,,0.03,,2013-04-09 22:23:00,
2013-04-09 17:34:00,62.0,-99.9,-100.00,NNE,31,9.0,11.0,-999,0.00,,,0.03,,2013-04-09 22:34:00,
2013-04-09 17:43:00,62.0,-99.9,-100.00,NNE,31,9.0,11.0,-999,0.00,,,0.03,,2013-04-09 22:43:00,
2013-04-09 17:54:00,62.0,-99.9,-100.00,NNE,31,9.0,11.0,-999,0.00,,,0.03,,2013-04-09 22:54:00,
2013-04-09 18:00:00,58.0,-99.9,-100.00,NNE,24,15.0,18.0,-999,0.00,,,0.03,,2013-04-09 23:00:00,
2013-04-09 18:03:00,61.0,-99.9,-100.00,NNE,13,14.0,16.0,-999,0.00,,,0.03,,2013-04-09 23:03:00,
2013-04-09 18:13:00,61.0,-99.9,-100.00,NNE,13,14.0,16.0,-999,0.00,,,0.03,,2013-04-09 23:13:00,
2013-04-09 18:23:00,61.0,-99.9,-100.00,NNE,13,14.0,16.0,-999,0.00,,,0.03,,2013-04-09 23:23:00,
2013-04-09 18:33:00,58.0,-99.9,-100.00,NNE,24,15.0,18.0,-999,0.00,,,0.03,,2013-04-09 23:33:00,
2013-04-09 18:43:00,58.0,-99.9,-100.00,NNE,24,15.0,18.0,-999,0.00,,,0.03,,2013-04-09 23:43:00,
2013-04-09 18:53:00,58.0,-99.9,-100.00,NNE,24,15.0,18.0,-999,0.00,,,0.03,,2013-04-09 23:53:00,
2013-04-09 19:23:00,56.0,-99.9,-100.00,NNE,25,16.0,20.0,-999,0.00,,,0.03,,2013-04-10 00:23:00,
2013-04-09 19:33:00,54.0,-99.9,-100.00,NNE,18,16.0,21.0,-999,0.00,,,0.03,,2013-04-10 00:33:00,
2013-04-09 19:43:00,54.0,-99.9,-100.00,NNE,18,16.0,21.0,-999,0.00,,,0.03,,2013-04-10 00:43:00,
2013-04-09 19:53:00,54.0,-99.9,-100.00,NNE,18,16.0,21.0,-999,0.00,,,0.03,,2013-04-10 00:53:00,
2013-04-09 20:03:00,51.0,-99.9,-100.00,NNE,27,19.0,24.0,-999,0.00,,,-99.99,,2013-04-10 01:03:00,
2013-04-09 20:13:00,51.0,-99.9,-100.00,NNE,27,19.0,24.0,-999,0.00,,,-99.99,,2013-04-10 01:13:00,
2013-04-09 20:23:00,51.0,-99.9,-100.00,NNE,27,19.0,24.0,-999,0.00,,,-99.99,,2013-04-10 01:23:00,
2013-04-09 20:33:00,50.0,-99.9,-100.00,NNE,30,19.0,24.0,-999,0.00,,,0.03,,2013-04-10 01:33:00,
2013-04-09 20:43:00,50.0,-99.9,-100.00,NNE,30,19.0,24.0,-999,0.00,,,0.03,,2013-04-10 01:43:00,
2013-04-09 20:53:00,50.0,-99.9,-100.00,NNE,30,19.0,24.0,-999,0.00,,,0.03,,2013-04-10 01:53:00,
2013-04-09 21:03:00,49.0,-99.9,-100.00,NE,39,16.0,18.0,-999,0.00,,,0.03,,2013-04-10 02:03:00,
2013-04-09 21:13:00,49.0,-99.9,-100.00,NE,39,16.0,18.0,-999,0.00,,,0.03,,2013-04-10 02:13:00,
2013-04-09 21:23:00,49.0,-99.9,-100.00,NE,39,16.0,18.0,-999,0.00,,,0.03,,2013-04-10 02:23:00,
2013-04-09 21:33:00,49.0,-99.9,-100.00,NE,43,15.0,18.0,-999,0.00,,,0.03,,2013-04-10 02:33:00,
2013-04-09 21:43:00,49.0,-99.9,-100.00,NE,43,15.0,18.0,-999,0.00,,,0.03,,2013-04-10 02:43:00,
2013-04-09 21:53:00,49.0,-99.9,-100.00,NE,43,15.0,18.0,-999,0.00,,,0.03,,2013-04-10 02:53:00,
2013-04-09 22:03:00,48.0,-99.9,-100.00,NE,38,15.0,19.0,-999,0.00,,,0.03,,2013-04-10 03:03:00,
2013-04-09 22:13:00,48.0,-99.9,-100.00,NE,38,15.0,19.0,-999,0.00,,,0.03,,2013-04-10 03:13:00,
2013-04-09 22:22:00,48.0,-99.9,-100.00,NE,38,15.0,19.0,-999,0.00,,,0.03,,2013-04-10 03:22:00,
2013-04-09 22:33:00,48.0,-99.9,-100.00,NE,38,15.0,18.0,-999,0.00,,,0.03,,2013-04-10 03:33:00,
2013-04-09 22:43:00,48.0,-99.9,-100.00,NE,38,15.0,18.0,-999,0.00,,,0.03,,2013-04-10 03:43:00,
2013-04-09 22:53:00,48.0,-99.9,-100.00,NE,38,15.0,18.0,-999,0.00,,,0.03,,2013-04-10 03:53:00,
2013-04-09 23:03:00,48.0,-99.9,-100.00,NE,45,17.0,21.0,-999,0.00,,,0.03,,2013-04-10 04:03:00,
2013-04-09 23:13:00,48.0,-99.9,-100.00,NE,45,17.0,21.0,-999,0.00,,,0.03,,2013-04-10 04:13:00,
2013-04-09 23:23:00,48.0,-99.9,-100.00,NE,45,17.0,21.0,-999,0.00,,,0.03,,2013-04-10 04:23:00,
2013-04-09 23:33:00,48.0,-99.9,-100.00,NE,51,16.0,20.0,-999,0.00,,,0.03,,2013-04-10 04:33:00,
2013-04-09 23:43:00,48.0,-99.9,-100.00,NE,51,16.0,20.0,-999,0.00,,,0.03,,2013-04-10 04:43:00,
2013-04-09 23:53:00,48.0,-99.9,-100.00,NE,51,16.0,20.0,-999,0.00,,,0.03,,2013-04-10 04:53:00,